Temp
63 63 63 63 63 63 63 63 63 64 64 64 64 64 63 63 62 92 100 92 91 73 77 100 100 100 101 97 97 97 91 81 80 80 83 88 85 88 89 86 86 88 87 89 92
62 62 62 63 63 63 63 63 63 63 63 63 63 63 63 63 96 100 80 75 76 76 102 99 96 98 100 95 98 93 88 84 89 88 88 88 88 87 83 84 83 85 88 89 89
62 62 62 62 63 62 63 63 63 63 63 63 63 63 63 73 98 102 76 76 76 82 105 102 101 98 94 97 93 92 86 89 89 89 91 88 86 89 85 81 86 85 88 88 88
61 62 62 62 62 62 62 63 63 63 63 62 63 64 64 93 87 101 77 76 77 102 104 100 98 95 93 90 93 89 90 91 90 89 89 86 89 85 87 88 91 91 91 89 87
61 61 61 61 62 62 62 62 62 62 61 62 63 64 84 97 99 95 77 80 99 101 101 99 96 95 91 92 92 90 89 90 91 90 90 89 86 86 86 91 90 90 89 89 89
60 60 61 61 61 61 61 61 61 60 61 63 64 65 95 92 101 100 100 98 102 102 101 101 99 99 94 92 91 91 90 90 91 90 89 85 87 84 88 92 87 87 88 90 89
60 60 60 60 61 61 61 60 60 60 64 65 66 84 95 96 102 102 101 103 104 103 101 102 103 99 97 91 93 91 87 89 89 89 88 88 83 82 90 87 86 86 88 89 91
59 59 60 60 61 61 61 60 60 62 67 66 67 92 95 102 105 101 103 102 103 105 102 103 104 98 95 95 92 87 88 85 88 87 88 86 79 84 88 86 85 86 87 87 90
59 59 59 60 60 61 60 59 62 66 67 69 89 95 94 86 98 105 106 103 103 103 103 100 102 96 93 91 88 88 82 82 85 89 88 84 82 85 88 86 85 87 87 88 89
59 59 59 59 60 60 59 59 64 68 78 90 93 90 98 96 101 102 106 104 100 100 99 98 99 94 96 90 78 81 82 85 83 88 86 85 85 90 91 84 85 87 88 88 89
59 58 58 59 60 59 74 98 95 91 94 89 90 89 94 100 102 101 104 101 100 98 91 95 90 85 88 89 89 86 84 82 87 88 84 85 85 89 91 88 84 85 87 88 90
59 58 58 58 59 58 81 89 83 85 80 92 91 91 95 97 94 99 105 96 94 90 92 90 86 91 91 89 86 86 84 84 86 85 84 85 83 88 89 87 88 88 87 88 90
57 57 58 58 58 78 89 85 91 87 80 86 91 92 95 97 94 97 101 99 93 89 90 85 89 92 90 88 86 86 83 82 81 83 84 84 81 84 88 91 90 90 89 90 90
57 57 57 55 74 86 90 89 94 89 79 82 86 93 95 97 91 101 104 99 93 89 90 89 94 89 90 87 89 82 87 84 82 82 75 82 72 81 85 86 90 90 91 91 91
57 57 57 54 79 87 87 93 92 85 65 83 87 99 97 92 95 92 101 97 90 90 89 86 88 88 86 86 88 82 87 85 83 82 80 79 78 80 85 84 86 87 89 89 91
57 57 56 72 83 88 91 92 88 74 63 80 88 86 88 91 91 92 93 98 96 90 91 91 94 91 90 88 88 88 87 85 85 84 71 75 75 77 82 83 86 88 89 87 90
57 57 58 78 88 89 90 89 74 69 82 78 81 86 87 85 86 88 84 82 82 77 79 87 89 93 92 88 89 88 83 69 69 71 69 78 75 79 86 87 86 85 88 88 90
55 54 62 81 88 86 86 81 65 76 78 85 84 86 82 86 86 85 83 83 87 86 83 78 76 88 92 89 86 84 82 74 60 65 71 79 72 80 88 89 88 89 89 88 89
53 86 84 90 86 84 84 73 77 78 81 80 84 80 80 84 84 83 84 84 86 88 77 78 78 90 88 91 88 81 79 84 74 76 73 79 80 87 89 89 87 88 87 85 86
74 81 89 86 85 83 81 66 79 82 82 83 78 82 78 82 80 81 82 87 86 90 91 84 75 86 87 89 87 85 86 75 79 63 61 73 75 77 82 84 86 86 85 85 86
77 79 85 89 85 83 77 79 80 86 83 81 81 80 82 81 83 82 82 85 86 86 89 88 80 80 85 84 83 83 81 79 78 76 66 65 73 85 83 84 83 85 86 86 88
76 76 88 89 79 83 82 77 66 83 87 84 84 84 82 81 80 82 81 83 85 87 81 86 81 76 80 86 87 86 82 80 73 70 76 72 73 87 86 86 84 84 85 86 88
74 79 89 85 76 79 80 79 79 81 83 84 82 84 84 81 76 82 82 84 84 85 82 83 78 73 74 80 83 81 82 81 77 76 71 68 74 87 86 85 85 84 85 86 87
73 74 82 84 82 76 76 77 77 84 82 84 83 86 83 80 83 80 82 84 85 84 65 77 79 76 73 75 82 77 79 80 78 72 73 76 77 84 85 82 82 84 86 87 87
75 73 71 75 78 77 77 77 76 77 84 86 84 84 83 79 82 81 85 86 86 71 83 83 76 80 80 81 81 80 80 80 77 79 72 76 77 82 83 83 84 85 85 84 86
70 72 76 77 71 73 67 76 75 79 80 81 81 83 85 80 81 80 84 85 82 87 84 82 77 80 77 80 81 78 81 80 80 80 79 80 79 85 86 86 84 85 82 85 85
76 74 71 64 73 74 78 77 77 78 83 85 85 85 83 83 87 87 87 85 84 82 80 80 80 76 72 78 79 73 79 80 81 82 78 74 80 85 84 84 84 85 86 85 85
MSLP
1020.91 1020.25 1019.90 1019.55 1018.87 1018.34 1017.86 1017.58 1017.10 1016.56 1016.10 1015.66 1015.33 1015.05 1014.89 1014.69 1014.34 1013.76 1012.09 1012.36 1012.21 1013.06 1013.04 1012.27 1011.63 1011.06 1010.61 1010.07 1010.14 1009.65 1008.01 1008.54 1009.40 1009.46 1010.13 1011.10 1011.27 1012.16 1012.83 1012.66 1013.19 1013.56 1013.79 1014.35 1014.99
1021.19 1020.55 1019.80 1019.35 1019.02 1018.20 1017.74 1017.26 1016.92 1016.41 1015.90 1015.50 1015.08 1015.07 1014.75 1014.45 1013.35 1012.33 1012.67 1012.27 1012.33 1012.51 1011.93 1011.23 1010.65 1010.58 1009.66 1009.61 1009.56 1008.69 1008.01 1008.94 1009.68 1009.99 1009.87 1010.63 1010.93 1011.39 1012.37 1012.43 1012.85 1013.41 1014.17 1014.71 1015.31
1021.22 1020.77 1020.03 1019.26 1018.90 1018.31 1017.51 1017.05 1016.71 1016.24 1015.72 1015.39 1014.88 1015.03 1014.63 1014.07 1012.45 1011.07 1012.39 1012.19 1012.38 1012.39 1011.13 1010.92 1010.48 1010.08 1009.19 1009.32 1009.34 1008.89 1008.63 1009.47 1009.84 1010.26 1010.33 1010.41 1011.01 1011.58 1011.85 1011.94 1012.09 1012.57 1013.24 1014.44 1015.02
1021.45 1020.82 1020.09 1019.58 1018.57 1018.30 1017.44 1016.87 1016.44 1016.06 1015.53 1015.16 1014.86 1014.80 1014.56 1013.63 1011.27 1011.54 1012.34 1012.37 1012.62 1011.60 1010.89 1010.52 1009.99 1009.16 1008.87 1008.59 1009.39 1008.28 1009.40 1009.68 1009.91 1010.53 1010.58 1010.62 1010.97 1011.35 1011.56 1011.50 1012.18 1012.51 1013.07 1014.08 1014.62
1021.53 1020.99 1020.11 1019.63 1018.63 1018.14 1017.41 1016.61 1016.24 1015.85 1015.35 1014.99 1014.85 1014.66 1014.38 1012.24 1010.79 1011.91 1012.53 1012.66 1012.12 1011.55 1010.54 1009.97 1009.44 1008.96 1008.31 1008.70 1008.97 1008.68 1009.29 1009.73 1010.06 1010.33 1010.55 1010.96 1010.97 1011.12 1011.28 1011.62 1012.47 1012.83 1013.32 1013.77 1014.25
1021.65 1021.11 1020.27 1019.47 1018.62 1017.91 1017.31 1016.47 1016.02 1015.59 1015.18 1015.00 1014.80 1014.77 1013.48 1011.53 1011.31 1011.69 1011.77 1012.10 1011.51 1011.21 1010.32 1009.99 1009.21 1009.16 1008.85 1008.90 1008.86 1009.29 1009.37 1009.38 1009.68 1009.84 1010.46 1010.83 1010.49 1011.39 1010.81 1011.49 1012.50 1012.80 1013.10 1013.51 1013.87
1021.74 1021.07 1020.22 1019.47 1018.56 1017.72 1017.11 1016.29 1015.78 1015.36 1014.97 1014.99 1014.99 1014.24 1012.44 1011.11 1011.30 1011.59 1011.68 1011.32 1011.28 1010.95 1010.08 1009.98 1009.59 1009.16 1009.07 1008.69 1009.35 1009.16 1008.73 1008.75 1009.29 1009.68 1009.83 1010.59 1009.93 1010.27 1010.60 1011.83 1012.03 1012.49 1012.93 1013.22 1013.45
1021.62 1021.00 1020.06 1019.39 1018.48 1017.43 1016.68 1015.97 1015.47 1015.18 1014.92 1014.87 1014.93 1013.64 1011.05 1011.36 1011.36 1011.54 1011.49 1011.17 1011.32 1011.08 1010.80 1010.44 1009.97 1009.51 1009.29 1009.35 1008.85 1008.54 1008.29 1007.06 1008.50 1009.33 1009.83 1010.47 1008.86 1009.78 1010.65 1011.39 1011.58 1012.07 1012.40 1012.85 1013.05
1021.64 1020.92 1020.08 1019.21 1018.34 1017.14 1016.22 1015.59 1015.08 1014.98 1014.75 1014.63 1013.99 1012.56 1010.71 1012.09 1011.26 1010.79 1010.95 1010.34 1010.68 1010.71 1010.60 1010.61 1009.87 1009.19 1009.35 1007.95 1007.06 1007.52 1006.85 1007.29 1007.49 1008.81 1009.09 1009.79 1008.62 1009.63 1010.39 1011.01 1011.08 1011.41 1011.81 1012.26 1012.61
1021.57 1020.86 1020.10 1019.07 1018.07 1016.99 1015.74 1015.06 1014.91 1014.89 1014.36 1013.76 1013.25 1012.33 1010.63 1010.33 1010.49 1010.64 1010.73 1010.59 1010.19 1010.10 1009.87 1009.61 1008.91 1008.05 1007.35 1007.22 1006.77 1007.04 1006.87 1006.97 1007.26 1008.07 1008.76 1008.38 1008.11 1008.25 1008.85 1010.28 1010.59 1010.82 1010.98 1011.41 1011.91
1021.70 1020.93 1019.97 1018.93 1017.99 1017.05 1015.19 1013.79 1014.52 1013.95 1012.90 1012.43 1011.90 1011.21 1010.40 1010.37 1010.58 1010.19 1010.28 1010.29 1010.06 1009.65 1008.86 1009.07 1008.31 1007.74 1008.05 1008.00 1007.86 1007.74 1007.28 1007.07 1007.28 1008.18 1008.38 1007.83 1007.99 1007.88 1008.53 1009.17 1009.83 1010.25 1010.42 1010.83 1011.23
1021.68 1020.91 1019.95 1018.92 1017.92 1016.83 1015.75 1014.80 1016.24 1016.34 1013.87 1012.25 1011.81 1011.34 1010.82 1010.66 1009.81 1009.64 1010.00 1009.68 1009.53 1008.73 1009.02 1008.73 1007.85 1008.37 1008.41 1008.33 1008.09 1007.65 1007.03 1006.96 1007.46 1008.51 1008.54 1007.91 1007.81 1007.97 1008.37 1008.77 1009.06 1009.41 1010.06 1010.47 1010.61
1021.73 1020.97 1020.01 1018.80 1017.79 1016.61 1015.95 1016.05 1016.31 1016.11 1014.17 1011.75 1011.25 1010.55 1010.05 1010.23 1009.18 1008.94 1009.44 1008.85 1008.76 1008.61 1008.48 1008.30 1008.11 1008.47 1008.07 1007.72 1007.32 1007.24 1007.58 1007.63 1007.95 1008.29 1008.51 1007.71 1007.22 1007.57 1008.03 1008.25 1008.81 1009.26 1009.86 1010.03 1010.17
1021.77 1021.10 1020.29 1019.01 1018.00 1017.04 1015.92 1016.18 1015.77 1015.90 1013.26 1011.17 1010.57 1009.84 1009.91 1009.54 1009.15 1009.11 1009.07 1008.85 1008.67 1008.23 1008.37 1008.04 1008.13 1008.22 1007.59 1007.33 1007.69 1006.78 1008.11 1008.06 1007.96 1007.74 1007.67 1008.35 1006.61 1007.11 1007.59 1007.54 1007.96 1008.81 1009.22 1009.54 1009.84
1021.63 1021.09 1020.50 1020.44 1018.56 1016.65 1016.36 1015.95 1015.81 1015.64 1011.87 1010.73 1010.01 1010.03 1009.34 1009.13 1008.60 1009.37 1009.45 1009.12 1008.37 1008.25 1008.86 1007.77 1007.98 1007.87 1007.56 1008.08 1008.24 1008.24 1008.42 1008.11 1008.10 1007.77 1007.65 1007.85 1006.45 1006.80 1007.31 1007.30 1008.06 1009.07 1009.49 1010.00 1010.25
1021.36 1020.99 1020.64 1019.30 1018.09 1016.79 1016.45 1015.93 1015.64 1013.79 1010.73 1009.71 1009.40 1009.38 1009.24 1009.08 1009.13 1009.46 1009.48 1009.39 1009.14 1008.74 1008.65 1008.08 1008.52 1008.39 1007.95 1008.47 1008.45 1008.53 1008.19 1007.96 1007.88 1007.13 1006.94 1008.03 1007.75 1006.12 1006.93 1007.88 1008.20 1009.01 1009.59 1010.35 1010.46
1021.07 1020.63 1020.55 1019.01 1016.72 1016.85 1016.36 1014.98 1013.33 1010.99 1010.35 1009.49 1008.98 1009.02 1008.75 1008.78 1009.10 1009.24 1009.46 1009.37 1008.93 1008.84 1008.20 1008.07 1007.92 1008.00 1008.46 1007.97 1008.32 1008.32 1007.63 1007.14 1007.09 1006.71 1006.63 1007.93 1007.59 1006.53 1007.33 1008.13 1008.67 1009.20 1009.64 1010.47 1010.66
1020.75 1020.04 1019.19 1018.00 1017.22 1017.01 1015.98 1014.06 1011.89 1010.35 1009.36 1009.37 1008.94 1008.73 1008.49 1008.73 1008.81 1009.17 1009.10 1008.70 1009.07 1008.80 1007.89 1007.53 1007.13 1007.63 1007.94 1007.84 1007.55 1007.87 1008.22 1007.66 1007.54 1007.29 1007.13 1007.31 1006.83 1006.54 1007.51 1008.24 1008.95 1009.32 1009.89 1010.69 1010.90
1020.18 1017.84 1017.41 1016.84 1017.13 1017.09 1015.13 1012.59 1010.51 1010.06 1009.93 1009.25 1008.88 1008.43 1008.35 1008.70 1008.90 1009.11 1008.87 1008.39 1008.41 1008.80 1008.60 1007.85 1007.57 1008.01 1008.50 1008.39 1008.56 1008.39 1008.13 1008.85 1008.59 1008.15 1007.14 1006.67 1006.67 1006.53 1007.41 1007.73 1008.71 1009.20 1009.99 1010.82 1011.25
1020.13 1017.91 1016.42 1016.81 1017.07 1016.28 1014.00 1012.04 1011.01 1010.75 1010.24 1009.55 1008.15 1008.20 1007.84 1008.23 1008.80 1008.79 1008.42 1008.38 1008.48 1008.78 1008.81 1008.35 1008.16 1008.23 1008.58 1008.82 1008.99 1008.67 1009.07 1008.82 1008.36 1007.84 1007.62 1007.02 1006.35 1006.20 1007.25 1007.73 1008.53 1009.15 1010.13 1010.89 1011.31
1019.87 1017.26 1016.54 1016.82 1016.74 1014.96 1012.68 1011.76 1011.31 1010.70 1010.44 1009.58 1008.57 1008.18 1007.89 1008.03 1008.28 1008.31 1008.27 1008.85 1008.99 1009.11 1009.33 1008.84 1009.05 1008.51 1008.78 1008.23 1007.99 1008.45 1008.40 1009.07 1009.27 1008.89 1008.45 1007.37 1006.73 1007.47 1007.99 1008.53 1009.15 1009.63 1010.41 1010.91 1011.06
1019.51 1016.71 1016.34 1016.39 1015.03 1013.95 1012.30 1012.38 1012.27 1010.74 1010.18 1009.67 1009.23 1008.50 1008.23 1008.46 1008.40 1008.35 1008.42 1008.89 1009.61 1009.58 1009.45 1009.53 1009.38 1008.55 1008.19 1008.82 1009.10 1008.84 1008.54 1008.79 1008.85 1008.76 1008.41 1008.70 1007.51 1008.25 1008.55 1009.02 1009.74 1010.09 1010.65 1011.13 1011.21
1019.19 1017.12 1016.13 1016.02 1013.72 1012.89 1012.70 1012.13 1011.83 1010.92 1010.18 1009.57 1009.07 1008.97 1009.00 1008.66 1008.73 1008.62 1008.91 1009.73 1009.93 1009.95 1010.13 1010.19 1009.51 1008.50 1008.52 1009.08 1009.14 1008.69 1009.15 1009.50 1009.74 1009.67 1008.71 1008.58 1007.44 1008.25 1008.87 1009.45 1010.03 1010.30 1010.75 1011.07 1011.33
1020.01 1016.79 1015.56 1015.12 1014.67 1013.54 1012.67 1011.97 1011.41 1011.09 1010.61 1010.00 1009.48 1009.14 1008.91 1008.75 1008.84 1008.71 1008.93 1009.65 1010.07 1010.61 1011.23 1010.68 1009.83 1008.97 1008.32 1008.47 1008.74 1008.67 1009.07 1009.50 1009.50 1009.19 1008.67 1007.97 1008.11 1007.99 1008.59 1009.48 1010.18 1010.47 1010.83 1011.03 1011.43
1019.94 1017.87 1017.43 1014.62 1014.31 1013.85 1013.33 1012.59 1011.55 1010.81 1010.51 1009.93 1009.20 1009.01 1008.79 1008.55 1008.42 1008.57 1008.84 1009.52 1010.22 1011.03 1011.03 1010.55 1009.74 1009.48 1009.31 1009.33 1009.18 1008.91 1008.83 1008.95 1009.16 1009.05 1009.11 1008.71 1008.53 1008.53 1009.33 1009.80 1010.13 1010.67 1010.96 1011.22 1011.18
1020.15 1018.73 1017.50 1016.12 1015.49 1014.40 1013.70 1012.54 1011.87 1011.19 1010.76 1009.85 1009.47 1009.34 1009.20 1009.04 1009.19 1008.80 1009.01 1009.25 1009.82 1010.33 1010.49 1010.61 1010.14 1009.79 1009.26 1009.53 1009.32 1008.96 1008.79 1009.03 1009.06 1009.19 1009.22 1008.92 1008.65 1009.58 1009.88 1010.16 1010.42 1010.61 1011.23 1011.00 1011.25
1020.90 1020.14 1018.90 1016.39 1015.27 1014.40 1013.05 1012.77 1012.30 1012.02 1011.04 1010.63 1009.98 1009.49 1009.61 1009.99 1009.87 1009.95 1009.99 1010.29 1010.42 1010.45 1010.54 1010.47 1010.11 1009.94 1009.08 1009.54 1009.27 1008.73 1008.71 1008.90 1009.16 1009.43 1009.82 1009.42 1009.66 1009.88 1009.80 1010.03 1010.29 1010.48 1010.69 1011.02 1011.45
Wind_Speed
17 18 17 16 17 16 16 16 15 14 13 12 11 8 7 7 8 7 5 6 7 16 9 8 7 4 5 1 2 5 2 8 8 2 9 7 4 2 2 3 3 3 3 6 11
16 17 19 17 17 18 16 17 16 15 13 12 11 7 6 6 8 8 7 11 19 15 9 7 3 4 3 2 1 7 9 11 5 4 5 6 5 4 4 4 5 7 3 6 12
18 17 18 20 17 19 18 17 18 16 13 10 10 6 6 8 9 4 6 14 12 11 3 2 4 2 1 2 3 3 10 4 4 0 5 3 3 2 5 3 3 5 7 11 12
18 19 18 20 20 19 19 18 19 17 13 10 8 6 4 7 1 7 5 9 4 6 6 5 5 3 2 5 2 2 3 1 3 4 2 2 1 4 8 4 5 4 5 11 12
17 18 19 20 20 19 19 19 19 17 11 8 6 5 6 8 4 6 7 7 5 4 6 5 4 3 4 3 3 6 4 2 2 5 5 2 7 8 7 8 2 3 8 12 11
17 17 18 21 21 21 19 18 18 16 10 5 5 3 6 11 4 7 8 10 5 7 2 5 4 4 4 4 6 4 4 3 5 5 6 8 6 4 3 8 8 8 11 11 11
17 18 18 20 22 21 20 17 16 14 7 3 4 6 7 4 3 7 8 4 3 3 5 2 3 7 4 3 1 3 8 5 6 4 4 6 13 9 3 8 12 11 11 11 11
18 19 20 20 22 23 22 17 16 10 4 3 4 7 2 3 5 8 8 5 3 4 5 4 4 1 7 1 4 6 3 5 6 4 4 7 7 5 5 10 13 12 11 12 13
18 19 20 21 23 25 23 18 10 6 4 4 6 7 7 4 6 7 9 2 5 4 3 3 5 5 5 8 9 5 8 8 3 1 1 6 12 8 3 7 9 10 12 13 13
19 20 21 21 24 25 25 8 1 5 6 5 3 6 8 5 6 5 6 4 2 3 6 5 6 10 3 9 11 10 9 9 8 6 5 9 9 7 4 5 8 9 10 12 13
19 20 21 22 25 23 15 4 3 6 4 8 3 7 3 1 5 8 7 8 4 7 6 0 11 11 13 9 9 8 7 8 7 6 8 9 10 10 10 5 5 9 9 10 11
19 20 22 24 25 20 9 6 6 7 8 5 9 9 8 3 6 9 9 11 9 10 3 9 1 7 7 6 4 5 8 10 1 6 7 10 8 7 7 7 5 4 3 5 8
18 20 22 25 23 7 6 7 7 3 7 2 4 7 4 7 5 13 14 10 9 9 6 6 6 5 4 1 9 7 10 9 9 4 2 14 9 8 4 2 5 5 2 2 5
18 18 19 30 5 7 1 5 10 5 6 8 7 6 7 4 7 1 9 7 8 11 6 6 2 5 7 4 10 8 8 4 4 10 9 7 4 12 8 3 9 11 9 7 7
18 17 17 10 9 6 5 9 3 5 7 5 7 4 4 9 7 6 4 6 12 10 6 3 5 8 9 8 7 7 4 6 4 4 8 11 9 9 5 10 11 9 9 9 9
20 17 16 3 4 7 8 9 4 8 2 6 5 10 12 9 5 5 5 4 4 6 8 13 1 5 7 1 4 3 8 5 6 5 1 7 8 9 10 9 9 8 10 9 10
22 20 10 5 5 8 9 5 7 6 4 6 7 10 14 10 7 9 10 8 8 9 14 13 15 3 5 9 6 8 7 4 5 6 8 4 9 9 9 7 6 5 9 10 10
25 21 7 6 8 8 5 6 6 3 2 3 4 10 13 11 7 5 6 9 9 10 9 10 13 12 7 7 8 3 7 6 10 10 12 6 6 7 4 5 4 3 9 10 11
26 3 4 0 4 4 6 7 3 3 3 1 8 10 9 8 5 9 10 9 4 12 10 6 11 7 3 3 6 6 5 5 7 7 8 6 7 7 4 4 3 5 9 10 10
8 5 2 6 3 5 5 4 1 3 4 3 5 4 10 12 11 9 11 3 11 10 11 4 6 3 5 4 3 7 3 6 5 6 13 12 10 9 10 7 5 5 8 8 7
5 5 6 2 4 6 6 3 3 3 3 3 1 6 2 7 11 9 9 4 2 4 7 6 6 6 5 8 6 5 9 3 4 5 9 9 11 8 7 7 6 6 8 8 8
4 5 4 4 6 2 4 3 3 4 1 2 3 2 1 4 7 7 5 2 1 4 6 6 5 9 4 4 4 5 5 4 5 8 4 6 3 6 5 5 3 5 6 7 6
5 4 3 4 5 6 2 2 3 4 3 3 1 3 1 4 4 5 3 3 4 3 5 8 4 7 9 7 5 4 2 2 2 4 10 8 6 2 4 2 2 4 4 5 5
5 4 4 4 1 6 2 1 1 2 4 3 2 1 4 3 3 7 7 4 4 3 1 1 1 5 8 8 5 3 2 1 4 7 8 8 14 13 10 4 1 0 2 5 7
3 2 5 4 6 4 4 1 3 1 3 2 3 2 2 3 6 7 6 10 5 6 2 3 3 1 3 2 3 4 7 4 7 5 7 13 13 12 10 7 3 2 2 3 7
5 4 3 2 4 6 3 3 2 1 3 3 3 2 1 5 6 5 5 1 4 5 2 1 3 3 4 3 6 8 6 5 6 7 8 9 8 9 7 4 3 0 3 2 4
1 2 5 3 4 5 4 2 0 4 2 2 1 4 6 8 6 6 6 5 5 3 3 2 2 5 4 1 7 9 2 6 7 6 6 10 14 11 8 5 5 2 4 3 1
Wind_Direction
350 342 338 341 334 333 332 332 326 324 320 320 317 317 320 311 298 228 246 79 163 173 232 173 211 233 238 129 351 266 131 70 77 151 88 133 215 158 79 256 204 169 296 30 131
349 341 334 340 336 329 333 330 326 325 321 322 313 317 310 315 250 240 113 124 140 182 188 202 210 224 176 94 81 296 64 64 41 77 69 143 221 152 219 207 217 206 169 151 162
344 341 335 331 339 328 330 331 326 327 325 321 308 310 298 282 245 108 140 148 165 207 211 217 185 236 288 279 48 16 60 76 111 262 314 135 206 194 237 266 247 211 162 176 181
341 336 337 330 331 330 328 332 326 329 326 315 299 288 275 241 237 71 144 157 158 253 198 174 213 225 307 16 24 285 84 344 85 164 231 210 247 223 242 18 12 231 170 183 196
338 334 333 329 327 331 328 328 326 327 324 308 279 268 259 227 53 83 139 144 184 239 256 236 250 293 2 27 274 343 43 220 202 204 227 198 233 246 246 235 249 220 188 198 204
335 332 332 328 329 327 327 325 326 324 326 294 252 249 248 233 71 119 145 161 221 242 287 254 335 6 11 12 331 349 314 260 225 205 198 230 245 247 188 198 196 199 201 207 214
334 332 332 331 326 325 325 326 323 318 330 268 224 262 248 44 38 145 172 194 211 282 315 299 253 294 326 279 98 298 286 186 201 214 236 255 239 223 253 178 204 207 210 217 224
337 333 333 333 326 324 325 324 317 304 314 251 264 251 217 61 128 169 185 205 213 241 276 282 258 15 310 18 214 278 226 343 107 197 142 245 331 126 149 200 218 217 218 217 232
336 333 331 333 326 325 323 316 303 283 253 256 245 255 165 131 195 165 199 216 168 196 189 177 256 310 210 276 214 166 2 22 88 204 338 252 330 90 118 227 249 229 226 224 229
337 332 328 332 328 327 318 277 196 247 223 235 251 233 166 138 130 158 186 213 183 171 185 227 245 254 316 345 19 352 354 359 10 45 254 277 292 324 181 212 264 264 249 234 232
335 330 329 332 329 326 323 231 261 177 342 306 5 309 90 89 191 198 178 187 215 236 278 12 283 24 348 341 325 321 328 342 22 36 301 15 339 356 25 27 233 251 253 254 244
335 331 333 332 329 315 283 56 51 324 302 259 269 271 264 290 184 167 176 198 208 243 209 227 270 11 338 340 299 286 303 30 101 37 301 348 336 36 24 27 17 338 270 267 261
334 331 334 331 325 313 11 57 344 240 260 224 239 252 211 205 209 169 198 210 223 222 222 297 28 311 307 74 294 77 355 353 350 327 215 320 131 70 74 23 50 78 84 303 286
331 330 336 325 299 351 90 0 331 212 260 144 191 208 189 228 207 114 215 241 212 247 199 288 26 299 310 41 338 3 8 327 337 331 18 335 56 70 23 40 78 62 55 41 17
328 330 331 335 317 298 18 334 359 219 218 118 146 78 171 203 142 157 173 222 248 209 229 245 280 337 294 20 330 34 324 343 326 344 295 27 284 59 66 42 62 57 48 37 19
324 327 334 180 249 286 318 317 216 230 144 137 141 177 177 194 154 114 185 234 323 242 233 274 40 284 354 341 329 137 254 245 244 263 21 29 311 75 35 17 30 43 50 39 26
320 318 302 307 324 330 311 243 236 267 148 142 162 186 198 177 154 178 184 188 213 218 230 222 239 201 244 242 176 242 292 303 342 350 28 70 269 36 30 28 18 34 47 46 34
317 313 161 271 304 309 251 230 258 74 66 118 183 181 196 178 187 164 180 203 221 240 275 228 219 201 167 265 331 28 324 349 327 349 332 148 355 38 23 51 84 78 65 49 41
309 297 260 77 302 239 255 239 27 30 16 270 163 188 192 191 247 210 229 252 240 212 237 228 246 118 54 307 301 127 266 22 286 211 275 354 19 150 79 96 95 81 60 49 45
316 304 256 329 181 246 251 292 327 343 323 221 194 238 186 185 202 214 215 250 233 222 238 217 272 174 110 196 122 294 89 238 224 320 319 342 294 38 1 1 26 74 52 49 42
267 283 72 53 242 232 255 43 310 7 291 267 136 168 199 171 210 192 183 133 226 170 216 249 257 137 202 212 335 182 206 244 299 285 321 318 345 55 359 2 9 41 48 39 28
299 245 69 279 229 242 246 342 346 310 192 268 285 23 178 163 196 208 199 302 22 196 189 183 245 242 271 65 316 294 341 289 300 329 355 280 319 50 12 12 29 44 60 47 34
307 294 129 270 241 203 160 246 275 308 348 359 75 16 121 150 160 202 162 58 142 171 167 173 199 204 174 169 172 258 98 18 301 268 285 312 355 93 42 340 80 24 64 89 54
279 243 163 217 319 300 261 147 251 261 275 313 328 240 177 141 189 156 138 96 102 89 10 212 110 321 344 22 0 250 189 307 299 282 347 311 345 340 26 15 68 27 101 57 74
239 80 358 192 192 274 277 309 274 182 235 280 188 70 38 125 140 135 136 135 122 152 136 287 137 228 71 62 260 307 303 247 262 303 296 339 329 2 9 347 4 19 89 180 103
301 313 180 279 281 254 182 185 265 341 281 140 263 51 1 76 11 120 143 80 68 120 79 56 166 243 185 214 265 289 303 237 275 285 283 316 335 13 359 313 272 69 199 238 89
80 226 280 139 186 231 201 224 284 335 160 320 292 168 109 58 35 54 70 71 62 25 75 296 150 240 266 241 290 259 199 288 301 282 330 316 352 337 334 335 318 303 279 9 218